Location: Rotheul
(50.2849°N, 11.2349°E)
Time: 13:02:06
(UTC+01:00)

ISS - Visible Passes

Search period start: 23 February 2019 00:00
Search period end: 05 March 2019 00:00
Orbit: 403 x 411 km, 51.6° (Epoch: 23 February)

Date Brightness Start Highest point End Pass type
(mag) Time Alt. Az. Time Alt. Az. Time Alt. Az.
23 Feb -1.0 06:34:30 10° S 06:36:48 18° SE 06:39:07 10° E visible
24 Feb -0.7 05:44:33 10° SSE 05:45:38 11° SE 05:46:44 10° ESE visible
25 Feb -2.2 06:27:15 10° SW 06:30:14 33° SSE 06:33:13 10° E visible
26 Feb -1.6 05:36:22 10° SSW 05:38:57 22° SE 05:41:33 10° E visible
27 Feb -1.2 04:47:03 13° SSE 04:47:43 14° SE 04:49:32 10° ESE visible
27 Feb -3.3 06:20:31 10° WSW 06:23:44 58° SSE 06:26:58 10° ENE visible
28 Feb -2.8 05:30:35 21° SSW 05:32:20 39° SSE 05:35:27 10° E visible
01 Mar -2.0 04:41:17 26° SE 04:41:17 26° SE 04:43:48 10° E visible
01 Mar -3.8 06:14:00 10° WSW 06:17:17 90° SW 06:20:34 10° ENE visible
02 Mar -0.4 03:51:53 10° E 03:51:53 10° E 03:51:57 10° E visible
02 Mar -3.7 05:24:36 35° SW 05:25:48 68° SSE 05:29:04 10° ENE visible
03 Mar -2.5 04:35:08 38° ESE 04:35:08 38° ESE 04:37:32 10° E visible
03 Mar -3.7 06:07:50 12° W 06:10:51 71° N 06:14:07 10° ENE visible
04 Mar -0.5 03:45:37 12° E 03:45:37 12° E 03:45:55 10° E visible
04 Mar -3.9 05:18:19 42° W 05:19:18 83° NNW 05:22:35 10° ENE visible
